Temp
5 5 5 4 4 5 5 5 5 5 5 4 4 4 4 4 3 3 4 4 4 2 2 6 6 5 4 6 6 6 7 7 8 9 9 9 10 13 15 16 17 15 12 10 10 11 15 19 21 20 18 17 16 15
5 5 5 5 4 4 5 5 5 5 4 4 4 4 4 3 3 3 3 4 4 4 2 5 5 6 6 6 6 6 6 6 7 7 9 9 9 10 12 14 17 15 15 14 14 13 16 18 19 19 16 15 14 14
5 5 5 5 4 4 5 5 4 4 4 4 4 4 4 4 3 3 3 4 4 1 1 2 3 8 7 6 7 5 5 7 5 4 6 7 10 12 12 12 16 17 16 15 16 17 18 18 19 17 17 15 13 12
5 4 4 4 4 5 5 5 4 4 4 4 4 4 4 3 3 3 3 3 3 2 2 1 5 5 6 7 7 6 7 6 6 5 4 6 8 11 11 12 13 14 17 16 15 17 18 18 18 16 13 13 13 12
4 4 4 4 4 5 5 4 4 4 4 4 4 3 3 3 3 2 2 3 3 3 1 1 4 7 8 8 8 7 7 5 5 5 5 6 7 9 10 10 11 14 15 16 14 16 16 17 15 14 13 13 12 12
3 4 4 4 4 4 5 4 4 4 4 3 3 3 3 3 2 2 -1 3 3 3 1 1 3 4 7 7 7 7 7 5 5 6 6 6 8 8 8 9 13 15 14 14 14 15 15 16 15 14 14 13 13 12
4 3 3 4 4 4 4 4 4 3 3 3 3 3 3 2 2 2 0 3 3 3 2 1 1 4 7 7 6 5 7 5 5 5 5 6 7 8 7 9 12 14 14 15 15 15 15 16 16 14 13 13 13 12
4 4 4 4 4 4 4 4 3 3 3 2 2 2 2 2 2 2 3 3 3 4 3 0 2 3 7 4 4 4 5 5 5 6 5 6 7 6 7 10 12 13 14 14 14 15 15 15 14 13 13 12 11 11
4 3 4 4 3 4 3 3 3 2 2 2 2 1 1 1 1 2 3 3 3 2 2 1 1 2 4 3 4 5 5 5 5 6 6 6 6 7 9 10 11 13 13 15 15 15 15 14 13 13 13 12 11 10
4 3 3 3 2 3 3 3 2 2 2 1 1 -1 -0 1 2 2 2 0 0 1 2 0 2 1 4 5 4 4 4 4 6 6 5 5 7 10 10 10 11 11 12 13 12 13 13 13 12 13 13 13 11 10
3 3 3 2 2 3 3 2 2 1 1 1 -1 -3 1 2 2 1 -0 1 0 1 2 1 2 2 3 4 3 3 5 4 6 6 7 7 7 9 10 11 12 12 12 13 12 13 13 13 13 11 11 11 11 9
3 2 2 1 2 3 2 2 1 1 1 2 1 1 2 2 -1 0 -0 -1 1 2 1 1 2 3 3 4 5 4 5 5 8 6 7 6 6 10 11 11 11 11 12 12 12 12 13 12 12 11 10 9 9 8
3 2 2 1 1 2 2 1 1 2 2 2 2 0 -3 -2 1 0 -0 0 -0 2 3 3 3 3 4 4 3 5 6 6 6 7 7 6 8 8 8 9 9 10 10 10 11 12 13 12 12 11 9 9 7 5
3 2 1 1 1 1 1 1 2 3 3 -2 -3 1 -1 -2 0 1 2 4 5 4 4 5 1 2 3 3 3 5 6 5 7 7 6 4 6 7 7 8 8 8 8 8 8 10 11 10 10 10 9 6 6 4
3 2 1 1 0 0 0 1 2 3 1 -2 -0 -1 1 2 1 2 4 4 5 6 5 3 3 2 2 3 3 5 5 7 7 7 6 5 5 5 6 7 7 6 5 5 7 7 7 8 7 6 6 6 5 2
2 1 0 0 1 1 1 2 2 2 -1 0 1 1 1 1 0 1 3 4 3 4 3 4 4 4 3 3 6 4 6 5 5 4 4 4 4 4 5 5 5 5 5 5 6 6 5 5 4 3 4 3 2 1
1 0 1 1 1 1 1 1 1 -0 -1 0 -1 0 0 0 1 2 3 4 4 4 2 2 5 5 4 5 6 5 5 4 3 3 3 4 4 4 4 4 4 3 3 3 4 5 4 3 1 2 -0 -0 -0 -1
0 1 1 1 1 0 0 1 -1 0 0 -0 -1 -0 0 1 2 2 3 4 4 3 2 5 2 3 2 4 4 3 3 2 1 1 2 4 4 4 4 3 2 1 1 1 2 2 1 2 2 0 -1 -2 -3 -3
1 1 0 0 0 1 -1 -1 -1 -1 0 -1 -0 0 1 1 1 3 3 4 4 4 2 2 3 3 3 2 3 3 2 1 2 2 2 4 3 3 3 3 1 0 0 1 1 1 2 2 0 -1 -2 -1 -2 -3
0 0 0 1 2 1 -0 -1 -1 -2 -1 -0 1 0 0 1 2 2 2 3 3 2 2 1 2 2 1 2 2 2 2 1 0 1 2 2 3 3 2 2 0 -0 -1 -1 -1 -1 -1 -1 -2 -2 -1 -2 -3 -3
1 0 0 1 1 0 0 -1 -2 -2 -1 -0 1 -0 0 1 2 2 2 2 1 1 2 2 0 1 1 2 3 3 2 3 3 3 4 4 3 2 1 0 -0 -1 -1 -1 -1 -2 -2 -2 -2 -2 -2 -3 -3 -4
0 -0 -1 -1 -1 -0 -1 1 -0 -1 -1 -1 1 -1 -0 -1 -1 0 1 1 1 4 1 1 3 3 3 2 3 3 5 5 4 4 3 3 2 0 0 -0 -1 -1 -1 -2 -2 -2 -3 -3 -3 -4 -4 -4 -6 -7
0 0 -1 -1 -1 -1 -1 2 1 1 -0 -1 0 2 1 -0 1 1 -1 0 1 1 3 2 3 4 3 4 4 4 4 4 3 3 2 2 2 2 -0 -1 -1 -1 -2 -2 -3 -3 -3 -4 -4 -4 -5 -6 -6 -7
1 -0 -1 -1 -2 -3 -1 -2 -2 2 1 0 1 -0 1 0 1 -0 0 0 0 1 1 2 3 3 3 1 2 3 5 4 3 2 2 2 1 -0 -0 -1 -1 -1 -2 -3 -3 -3 -4 -4 -4 -5 -6 -6 -6 -7
-0 -1 -2 -3 -3 0 -3 -1 1 2 -2 -2 0 -2 -2 -1 -2 -3 1 -1 -0 3 3 1 1 2 3 3 3 4 4 3 1 1 3 2 0 -1 -1 -1 -1 -2 -2 -3 -3 -3 -4 -4 -5 -5 -6 -6 -7 -7
-1 -1 -3 -2 -5 -1 -1 -4 -3 -3 -5 -2 -1 -1 -1 -2 -2 -1 -1 -1 -1 -1 -3 -2 0 1 1 2 3 3 3 3 3 1 1 1 -0 -0 -0 -1 -2 -2 -2 -3 -3 -4 -4 -5 -5 -6 -6 -7 -7 -7
-0 -3 0 0 1 1 -2 -2 1 -2 -4 -3 -5 -3 -3 -2 -3 0 1 0 1 3 3 3 2 1 1 2 4 5 5 5 3 2 3 1 -0 -0 -0 -1 -2 -2 -3 -3 -4 -4 -5 -5 -5 -6 -6 -7 -7 -7
-1 -0 -2 -0 -0 1 -3 -3 -4 -3 -2 0 -2 -2 -1 -2 -0 0 1 3 4 4 3 2 2 1 1 2 3 5 3 2 2 2 1 -0 -0 -0 -1 -1 -2 -2 -3 -3 -4 -4 -5 -5 -5 -6 -6 -7 -7 -8
-2 -1 -1 -4 -4 -3 -4 -3 -2 -1 1 -0 -2 -3 -2 -0 -2 -2 3 3 5 2 1 0 1 2 1 3 4 3 3 2 1 -0 -0 -1 -2 -3 -2 -2 -3 -3 -3 -4 -4 -4 -5 -5 -5 -6 -7 -7 -8 -8
-2 -0 -3 -7 -5 -2 -4 -3 -4 -2 -2 -2 -2 -2 -1 -1 4 6 5 3 1 1 1 1 -1 0 0 0 -0 -0 0 1 2 1 0 -1 -2 -3 -3 -3 -3 -3 -4 -4 -5 -5 -5 -5 -6 -7 -7 -8 -8 -8
-1 -1 -3 -4 -4 -7 -3 -0 -2 -1 -4 -2 -5 -4 0 -1 1 4 4 3 2 1 -1 -0 -0 -0 0 0 1 0 -1 0 1 1 1 -0 -2 -3 -3 -3 -3 -4 -4 -4 -5 -5 -6 -6 -7 -7 -7 -8 -8 -8
-4 -3 -3 -2 -1 -1 -1 0 -2 -7 -4 -3 -6 -6 -0 -0 -2 -3 2 2 -0 -1 -0 -0 0 -0 1 1 1 1 2 1 1 1 0 -1 -2 -3 -3 -3 -4 -4 -4 -5 -5 -6 -6 -6 -6 -7 -7 -8 -8 -8
-3 -2 -5 -2 1 1 -4 -0 0 1 2 1 -2 -4 -4 -3 -1 -2 1 0 0 0 -0 -0 0 1 1 1 1 1 1 1 0 -0 -0 -1 -2 -3 -3 -4 -4 -4 -4 -5 -5 -6 -6 -6 -7 -7 -7 -7 -7 -6
Height
723 728 734 742 752 762 772 782 790 797 803 808 814 818 823 828 832 835 837 839 841 842 838 836 836 839 837 836 833 831 826 821 817 815 818 807 797 781 778 773 773 784 802 817 819 821 805 761 761 775 769 765 770 777
716 723 729 735 746 758 768 778 786 793 799 805 810 815 821 826 830 833 837 838 839 840 837 833 833 834 835 835 838 832 830 829 825 823 812 804 800 794 784 785 766 781 773 787 787 789 765 758 757 754 758 764 771 775
711 715 722 731 742 754 764 773 782 789 795 801 807 813 818 823 827 831 834 837 837 838 834 831 827 824 825 827 829 833 830 827 831 835 827 814 796 786 786 785 769 762 759 772 772 762 758 756 752 754 755 759 766 772
707 710 714 726 738 750 760 770 779 786 792 798 805 811 816 821 826 829 832 835 837 838 839 829 820 819 819 820 820 821 824 825 827 830 833 825 807 788 782 783 776 766 759 761 765 757 754 752 752 753 759 762 768 775
702 703 712 723 735 746 757 767 775 782 790 796 803 809 815 820 825 829 831 833 835 838 837 829 818 809 808 809 811 814 816 820 823 826 828 821 811 797 789 784 778 763 762 765 771 760 761 753 747 750 757 762 766 773
701 704 712 722 732 744 754 764 772 780 787 794 802 809 814 819 823 829 832 829 831 834 836 834 816 806 802 803 804 806 809 814 818 819 818 814 807 810 799 790 765 758 760 761 764 759 754 746 749 746 752 758 764 769
699 704 712 721 731 741 752 762 770 779 786 794 801 807 813 818 821 825 828 825 825 830 834 832 823 800 792 795 798 800 802 807 811 815 814 809 805 804 802 786 767 759 759 759 758 756 752 751 757 749 749 757 764 771
696 700 709 718 729 739 751 760 770 778 786 795 802 809 814 818 823 824 824 825 826 828 830 834 821 806 790 795 798 795 800 802 803 805 806 804 802 803 794 772 766 765 762 757 753 753 753 750 748 756 753 757 766 773
696 702 707 717 725 739 749 760 769 778 787 796 804 810 815 819 821 821 823 825 827 830 825 824 821 816 794 797 795 794 794 801 797 796 797 799 796 783 764 765 758 755 755 751 747 751 751 747 751 749 751 758 763 773
689 697 706 716 727 738 749 760 770 779 787 796 805 809 815 815 817 820 823 825 826 824 822 822 815 814 803 800 799 800 796 797 793 788 790 789 772 757 755 753 749 749 750 751 752 756 755 751 752 749 746 747 752 761
694 695 704 716 728 738 750 761 770 779 787 794 802 808 809 812 817 821 823 822 822 819 812 809 809 808 803 803 802 801 790 791 783 779 776 768 755 743 744 746 740 738 740 745 748 747 747 744 743 750 751 753 757 762
695 700 708 718 729 740 750 760 767 774 782 789 795 803 809 814 818 820 819 818 811 805 797 797 796 796 794 792 794 796 789 780 766 768 770 762 751 731 727 730 730 731 729 730 734 737 736 737 737 742 747 752 758 764
695 702 710 719 730 741 750 759 767 775 781 789 795 803 811 815 812 813 812 803 801 785 781 782 786 786 788 787 794 789 783 770 764 759 756 751 742 735 733 732 732 730 729 729 728 729 730 731 734 737 744 751 757 767
693 701 711 720 730 741 751 759 767 774 779 789 801 802 807 811 797 789 780 773 771 769 771 772 783 784 783 788 788 783 774 769 757 755 756 753 744 740 738 735 732 729 727 726 724 722 722 725 730 732 737 741 751 763
691 701 711 720 730 740 752 761 769 775 778 788 791 799 785 778 775 773 770 770 765 762 764 772 777 779 784 783 783 774 771 759 753 749 754 754 751 747 742 738 734 731 728 722 720 719 716 719 724 730 737 741 748 758
693 705 712 722 733 744 755 765 771 775 780 784 783 780 774 776 776 772 767 765 760 759 762 766 770 777 779 778 765 769 760 762 765 767 763 758 754 750 746 741 737 732 728 721 715 712 712 713 719 726 738 744 749 753
695 701 713 725 737 748 759 767 773 779 781 780 778 772 773 773 771 767 760 758 758 757 766 768 768 765 769 765 760 763 769 768 766 764 761 758 754 749 744 740 736 731 726 718 711 705 709 712 718 726 738 749 755 762
696 706 718 729 740 754 764 768 773 774 773 771 774 769 768 766 764 762 759 758 758 760 763 763 769 771 776 767 765 767 764 763 763 761 756 751 750 747 743 739 735 734 730 721 716 715 711 711 717 730 736 745 756 767
698 710 721 731 739 749 762 770 771 771 765 766 764 763 762 761 759 756 755 755 754 757 765 767 767 766 763 762 758 758 758 759 757 755 751 748 747 742 739 737 735 734 731 725 722 720 721 723 719 723 733 742 752 765
706 716 725 733 741 746 757 764 766 767 763 759 756 759 759 758 755 754 753 753 755 761 765 766 760 757 758 751 750 750 749 749 752 752 746 742 737 735 735 734 734 732 732 728 726 724 725 731 731 738 739 741 748 761
717 725 732 737 743 747 750 758 761 759 755 755 750 754 755 752 752 753 752 750 756 757 757 754 752 746 742 742 742 742 742 742 741 739 735 730 729 728 729 730 730 732 735 732 731 731 731 734 735 742 748 752 757 763
717 725 735 744 748 750 752 749 750 749 753 750 747 749 751 754 753 748 746 749 748 742 744 742 739 736 736 737 734 735 734 733 732 731 729 729 728 728 727 726 729 730 731 730 731 732 734 736 738 746 752 759 763 771
718 729 738 744 749 752 750 742 747 746 751 750 745 743 745 746 740 739 747 737 734 730 730 732 730 728 728 725 725 725 726 725 723 724 723 723 722 721 720 720 723 725 727 729 731 732 735 737 740 748 756 761 768 777
724 730 736 740 743 750 743 746 742 740 741 743 742 747 740 740 735 741 739 732 727 723 724 722 721 721 721 720 719 716 714 715 715 716 716 716 716 715 714 716 718 720 723 726 730 733 736 739 743 749 756 763 772 780
727 734 737 743 740 739 751 741 737 736 749 746 741 748 743 734 745 746 729 728 722 716 713 714 714 712 711 707 706 703 703 706 708 708 706 706 708 710 712 713 715 717 721 726 730 734 737 741 747 752 758 765 773 782
725 726 734 730 741 736 737 749 747 746 752 746 739 734 733 741 745 735 724 715 713 711 713 715 711 707 703 699 696 695 694 697 698 699 702 703 704 706 708 712 715 719 721 723 727 732 738 744 749 755 763 770 776 783
718 724 716 713 715 718 731 729 726 735 746 746 746 742 744 746 745 717 705 705 707 705 704 702 700 698 696 693 689 686 687 689 691 694 696 698 700 703 705 707 711 716 720 724 729 733 739 746 753 758 764 773 779 782
708 707 716 711 714 713 730 731 737 736 731 723 730 737 734 731 719 704 698 693 692 692 693 693 692 690 688 683 681 682 684 686 689 692 697 700 702 703 705 707 711 716 722 727 732 738 742 748 754 761 767 773 779 787
705 701 705 720 721 720 726 724 722 716 710 714 724 727 716 701 695 693 690 688 687 686 685 684 684 684 681 677 676 678 680 684 690 696 698 701 703 707 706 710 715 720 725 730 736 741 746 751 758 765 771 776 781 788
703 697 711 726 725 719 717 711 714 708 706 706 705 703 699 690 684 684 682 680 679 675 674 675 678 680 681 681 682 684 685 686 687 690 694 697 701 705 709 712 716 721 726 732 739 745 751 756 763 770 775 780 785 790
694 698 708 713 719 717 709 708 708 707 707 704 702 704 693 687 676 673 671 668 665 666 670 671 671 672 674 676 679 683 687 688 689 690 692 696 701 706 710 713 717 722 728 734 740 746 752 758 764 769 774 779 785 791
702 705 708 713 711 708 708 708 710 715 706 702 702 697 690 689 685 669 660 659 659 663 664 665 667 668 670 672 674 677 678 682 686 690 694 698 702 706 710 715 720 725 730 736 742 748 754 758 763 769 775 780 785 790
703 702 708 708 704 706 711 708 705 699 695 692 691 690 686 685 678 662 657 658 659 660 661 661 663 666 668 671 674 676 679 683 686 690 695 698 702 707 712 717 721 727 732 738 744 749 755 760 765 770 776 780 784 789
Wind_Speed
30 34 35 36 44 45 41 39 34 30 27 24 22 21 19 16 14 12 5 8 3 1 4 4 1 2 4 3 3 5 4 2 3 2 3 4 4 5 3 4 5 6 6 4 3 3 5 4 3 9 6 1 10 10
32 37 41 50 46 44 42 37 34 31 28 24 23 21 20 18 16 13 5 8 6 4 5 13 19 17 15 18 3 2 2 1 2 3 1 2 3 2 3 6 2 5 6 6 8 6 6 4 6 3 6 6 6 12
23 38 53 40 46 45 42 37 35 32 28 25 23 22 21 18 17 17 10 6 1 2 5 2 6 22 18 24 23 3 2 3 3 1 3 3 4 0 0 4 3 3 2 4 3 4 6 8 3 5 5 6 8 8
21 31 50 42 49 45 41 37 34 31 28 26 23 22 21 19 18 18 16 9 2 1 2 5 7 7 8 15 16 25 13 3 8 2 0 2 4 3 1 5 3 5 1 4 2 5 5 3 6 7 6 11 13 12
18 39 46 49 47 44 40 37 34 31 29 25 24 22 21 19 16 15 14 14 10 3 2 4 19 31 17 17 20 19 20 5 3 2 3 3 4 4 3 2 4 2 3 2 4 0 4 8 8 11 14 13 18 16
18 24 44 45 44 44 40 37 34 31 28 25 23 22 20 18 17 10 2 13 20 13 1 3 6 7 19 17 13 13 16 4 4 3 3 3 4 4 3 3 6 4 4 5 4 6 5 11 8 10 12 17 16 17
27 21 42 45 44 43 40 37 34 30 27 25 24 22 19 18 21 6 4 4 3 18 1 4 4 5 14 13 5 3 11 3 4 3 4 3 3 3 3 5 7 13 13 12 10 8 5 5 3 9 10 17 22 22
16 35 49 49 47 44 41 37 34 31 28 26 23 19 16 15 15 11 6 2 7 7 3 2 4 4 4 2 2 4 4 3 3 4 3 3 3 3 6 6 14 17 14 11 9 3 7 9 5 8 18 21 18 17
19 32 41 47 47 44 41 38 35 32 30 26 22 18 13 6 5 6 15 12 9 3 2 2 2 3 4 3 2 2 2 2 2 4 4 4 4 7 7 11 11 12 7 5 4 8 14 5 8 16 18 17 18 16
16 43 49 49 45 43 42 39 37 35 32 29 24 5 3 8 9 12 6 2 1 3 3 3 2 4 4 1 3 3 2 3 3 5 4 4 9 15 10 8 8 7 6 5 5 7 10 6 8 15 20 21 21 20
17 38 51 47 46 45 43 42 40 39 37 12 5 2 4 21 8 2 2 3 3 3 4 4 8 8 3 4 2 3 2 3 3 4 6 4 5 9 15 20 20 17 14 11 8 11 8 8 13 8 8 11 21 26
26 40 46 48 47 48 46 45 46 31 17 13 15 15 11 2 2 3 3 2 6 6 5 6 7 7 4 4 2 3 3 4 6 6 5 4 4 6 12 17 19 18 19 17 15 11 12 8 15 13 12 16 22 27
30 44 48 49 48 48 48 49 37 31 36 18 4 4 3 1 4 7 7 4 4 4 4 4 4 4 1 2 2 3 4 4 2 4 4 4 3 5 5 3 2 2 4 8 13 15 19 13 20 21 18 22 27 28
46 49 52 51 50 48 47 44 38 37 11 3 4 6 5 4 5 6 6 6 4 3 4 8 2 3 2 3 3 3 4 1 4 3 3 2 5 8 6 5 3 6 7 6 7 12 14 13 16 25 30 38 36 31
50 53 51 49 49 46 47 41 37 25 4 3 4 5 7 6 4 4 4 3 5 2 3 4 3 2 1 1 3 2 2 4 3 2 3 5 10 8 11 11 11 9 9 10 7 7 10 16 19 20 27 34 35 36
52 51 35 46 47 48 45 39 22 5 3 3 4 3 3 1 4 2 4 5 3 3 3 2 3 1 4 3 3 6 3 1 4 4 6 9 12 11 11 11 12 13 11 13 15 13 14 21 22 24 28 27 33 40
44 12 44 47 46 46 38 21 7 2 4 4 4 3 3 4 4 4 2 3 2 1 2 2 5 6 3 3 4 2 3 3 3 4 3 7 11 13 13 12 13 17 17 16 16 13 16 24 33 32 18 23 28 29
21 47 49 49 45 37 16 5 3 4 6 5 2 3 3 3 2 4 3 0 2 2 2 3 3 2 4 3 3 3 3 2 4 5 5 7 8 14 14 10 13 15 15 10 3 7 21 29 23 18 31 34 34 32
47 50 50 48 35 19 4 3 3 3 6 2 3 2 2 3 3 4 2 3 3 6 2 1 3 3 3 3 4 3 3 4 3 4 4 11 13 12 14 14 12 11 9 2 5 8 11 12 20 32 35 36 32 31
49 51 51 44 31 5 4 3 5 2 3 4 3 4 4 3 3 2 2 3 4 4 1 3 4 4 4 4 4 4 4 4 4 6 7 5 7 9 11 9 7 4 1 8 12 16 19 16 20 23 27 33 36 33
43 42 45 34 4 7 3 4 2 3 2 2 3 4 3 2 6 4 3 2 2 3 3 4 4 5 9 12 13 11 8 6 7 6 9 9 6 8 10 11 10 8 6 7 8 12 16 16 21 22 25 25 30 32
23 34 17 10 3 1 1 6 4 3 3 3 2 3 2 3 3 3 2 3 3 5 4 4 6 8 7 5 11 14 20 22 20 17 17 15 4 2 4 10 11 7 10 10 13 14 18 22 26 26 27 28 31 33
27 18 6 3 2 2 5 4 2 3 1 3 2 3 2 2 3 3 3 3 4 4 9 7 10 19 12 22 21 21 19 20 9 12 12 12 13 13 12 14 15 12 8 10 16 20 22 28 32 32 32 32 34 33
18 5 4 5 4 4 0 2 2 3 2 2 3 3 3 4 2 1 4 3 4 2 4 9 12 10 10 9 7 10 23 20 15 12 14 8 6 9 15 14 16 14 17 21 20 22 26 27 32 33 33 34 32 31
5 3 5 4 3 4 2 2 3 3 3 3 3 3 3 2 1 3 5 3 3 8 8 5 7 9 11 11 8 16 20 16 9 7 13 16 10 8 9 11 14 19 26 22 20 23 24 28 29 31 33 33 32 31
4 6 7 8 3 5 5 4 5 6 3 2 4 3 1 2 1 6 4 4 3 3 2 3 7 7 8 11 11 9 12 19 20 6 8 14 18 13 8 7 7 11 22 27 27 26 26 28 30 32 30 32 33 32
6 6 4 4 4 4 2 0 2 4 3 5 3 2 2 2 6 5 1 1 1 1 7 13 15 8 7 11 22 27 23 17 16 7 7 12 17 20 21 14 11 19 28 29 30 32 32 31 31 30 31 29 30 31
4 5 8 6 4 3 5 3 5 6 4 3 4 4 7 8 6 3 4 11 20 22 24 21 20 18 19 22 25 19 11 11 10 9 12 12 13 15 19 23 26 31 32 32 32 32 33 32 31 31 31 30 28 29
3 3 4 2 2 2 5 5 5 4 3 4 5 4 5 4 3 3 9 16 18 20 13 9 16 13 9 9 13 15 19 23 13 7 7 5 4 8 25 29 33 32 32 34 35 37 36 36 34 31 30 30 29 31
3 2 4 3 4 3 4 4 3 2 2 3 2 2 3 4 15 27 28 24 14 14 17 16 11 11 7 11 9 9 15 18 20 13 8 7 8 21 27 31 31 32 34 33 32 33 34 33 31 30 30 29 29 29
1 3 3 2 3 3 2 1 2 2 2 3 2 3 6 5 11 24 27 28 27 16 9 8 8 12 11 10 12 8 5 13 16 14 10 18 26 28 27 30 33 35 35 35 35 34 34 32 31 30 29 28 28 29
2 3 4 2 1 1 1 1 2 2 3 3 4 3 2 3 4 3 4 8 12 6 11 13 11 9 18 16 14 11 9 19 21 19 18 24 28 29 32 33 34 36 36 34 33 35 35 32 30 29 29 30 31 32
2 2 2 3 2 2 2 1 3 3 4 4 4 4 5 5 6 3 2 6 9 9 10 14 14 14 16 16 16 13 15 21 24 22 22 26 31 33 33 34 35 36 37 34 33 33 31 31 30 29 29 31 32 33
Wind_Direction
222 207 193 202 195 196 201 199 199 200 199 197 199 200 202 201 202 209 227 228 201 214 280 264 3 338 356 355 334 325 328 31 311 168 180 252 203 217 163 215 198 165 148 183 89 95 256 225 82 184 208 164 160 170
222 217 212 188 192 196 197 197 198 197 196 196 196 197 198 200 199 208 231 225 242 203 242 294 287 282 263 248 264 287 246 37 333 284 269 289 307 347 164 216 266 222 186 182 178 203 232 241 215 217 166 143 162 151
209 201 190 197 193 194 195 195 196 195 193 192 195 196 197 198 198 206 215 232 277 24 301 297 249 279 269 251 246 220 237 180 124 321 330 298 269 298 159 245 257 276 141 182 108 228 231 233 262 166 170 146 138 144
226 211 187 188 188 193 191 192 193 191 188 188 193 194 195 197 197 204 215 224 211 210 247 278 342 295 275 275 264 235 236 141 141 150 211 281 273 357 165 276 219 215 44 186 237 293 333 283 207 151 106 113 113 136
216 194 193 185 186 189 188 189 188 185 186 187 189 192 193 193 193 201 224 237 226 188 247 283 305 292 282 268 252 242 217 172 175 175 198 229 290 317 313 308 255 216 215 154 225 160 239 261 177 152 141 149 145 138
197 191 179 185 186 186 185 185 183 182 182 185 187 188 187 184 177 161 355 243 229 224 355 304 290 275 276 271 255 231 204 178 176 171 216 222 234 204 277 261 267 248 58 59 331 327 310 289 204 163 148 155 154 149
197 197 188 188 185 184 182 181 178 178 178 177 178 180 181 178 175 158 191 123 190 199 197 291 282 261 253 234 206 175 192 183 150 191 217 229 269 12 270 243 300 309 310 310 303 330 355 38 298 190 150 153 144 143
198 197 184 181 180 180 178 176 174 171 169 171 170 170 170 174 190 229 200 138 51 161 197 233 265 316 194 182 189 184 155 166 203 201 180 202 208 207 239 224 237 251 261 282 285 258 241 290 228 183 146 137 140 146
204 183 175 174 170 175 170 169 167 163 160 158 153 142 127 158 185 216 224 262 271 218 241 219 220 262 6 4 295 84 150 166 188 210 205 185 211 226 210 215 231 230 215 236 357 320 302 291 194 162 154 152 145 150
207 183 176 168 169 169 166 165 160 156 150 144 133 101 165 195 162 141 156 66 337 209 226 227 294 277 12 5 342 360 225 204 217 215 176 215 239 238 231 232 248 236 211 209 231 246 253 230 191 179 173 169 163 159
180 167 167 166 166 167 164 160 155 148 141 134 135 167 136 138 140 82 195 200 195 227 213 205 208 242 263 250 196 184 259 208 228 214 195 240 255 237 219 227 238 249 250 232 212 252 243 223 187 188 163 160 155 154
188 179 167 163 164 165 163 159 154 148 154 141 123 107 123 125 96 179 212 241 203 219 198 183 205 191 222 188 161 202 239 212 232 146 187 251 271 265 200 210 227 237 250 260 246 234 250 215 176 173 160 153 157 151
183 170 166 164 162 166 163 159 154 140 131 126 87 102 102 274 189 199 205 229 209 207 186 188 188 170 207 149 222 171 246 245 291 192 221 230 285 341 18 357 18 308 324 267 251 238 248 221 191 164 156 151 143 143
179 172 166 161 158 159 159 155 152 147 130 104 122 143 188 207 232 199 219 211 222 226 199 196 116 165 169 133 190 218 242 245 259 221 249 270 335 344 340 328 315 312 297 293 292 237 225 186 182 171 161 153 149 150
171 165 161 159 160 159 158 153 153 157 109 129 128 204 213 221 254 231 256 288 231 220 157 100 84 123 198 131 206 229 242 242 235 334 352 338 328 329 329 330 325 322 313 300 288 256 214 176 155 151 161 158 151 144
161 157 158 160 157 156 153 153 150 126 70 126 224 241 259 142 276 272 224 238 234 176 112 83 109 140 197 205 234 218 219 67 2 315 326 332 331 326 322 319 317 312 302 291 279 238 184 151 151 142 145 148 149 148
147 140 157 152 153 154 150 142 133 114 186 203 235 219 232 236 231 249 244 210 228 104 157 116 147 210 132 216 219 11 33 260 240 283 285 310 317 312 315 315 321 323 315 308 299 180 153 137 135 133 128 135 136 139
135 144 148 149 141 140 141 139 127 182 212 221 200 229 200 223 264 288 298 29 55 22 85 177 129 156 200 199 161 218 243 229 230 249 272 290 296 302 299 303 313 317 308 322 37 147 147 145 141 138 132 131 125 126
142 146 149 146 142 127 120 154 183 219 220 199 210 240 200 245 243 244 241 243 166 127 137 31 202 216 214 215 203 217 218 211 235 250 255 258 266 294 289 289 300 310 305 338 124 138 145 154 143 146 143 142 136 139
148 149 151 149 148 107 110 131 177 222 230 217 187 198 195 204 235 247 242 180 151 134 267 195 219 214 193 226 203 219 227 209 202 266 271 237 279 278 272 257 253 278 297 92 91 104 110 116 126 141 145 143 141 143
144 150 154 151 104 46 129 147 192 217 225 231 212 159 218 227 232 231 246 177 120 184 204 217 227 242 227 246 252 229 248 250 260 254 281 288 276 250 242 238 213 200 207 155 132 126 127 132 131 134 134 133 134 134
129 142 141 151 77 60 290 215 175 202 167 225 172 167 193 196 237 215 180 176 210 221 202 202 232 247 255 246 257 239 251 257 251 249 247 253 268 229 222 206 187 192 184 167 155 142 132 128 125 125 125 123 120 124
129 124 107 113 130 170 253 177 155 195 151 245 144 164 261 232 214 127 219 213 226 216 223 227 244 245 243 260 262 263 258 252 257 237 231 239 254 251 213 194 188 173 151 149 150 143 139 136 131 130 128 126 127 126
125 111 142 168 151 207 336 254 184 147 286 172 169 211 218 204 169 179 233 223 232 222 207 230 234 249 254 251 254 260 266 253 239 223 225 252 266 211 199 190 184 172 158 147 146 140 139 138 135 134 134 132 133 135
110 199 134 203 244 132 254 189 151 145 222 232 141 278 272 130 152 248 244 258 236 246 255 263 239 231 240 251 253 252 258 217 198 220 235 235 215 167 159 162 159 154 152 142 144 142 141 139 138 138 138 138 138 138
150 187 156 177 212 155 197 151 182 186 159 196 217 242 60 105 146 254 229 219 215 182 181 259 263 252 245 236 249 256 236 219 222 220 210 215 190 179 168 154 142 146 160 153 148 145 142 142 141 139 139 141 142 143
168 204 205 200 164 142 72 117 149 119 164 197 230 149 113 218 246 246 253 27 287 62 253 288 278 249 261 264 252 250 253 225 202 194 188 207 207 189 176 164 158 155 160 154 151 148 144 144 144 143 142 147 152 151
197 177 168 191 154 155 152 141 155 184 209 215 106 171 193 203 233 223 216 210 224 247 244 262 281 273 268 262 258 242 198 174 150 127 133 154 172 179 170 163 164 162 155 155 151 149 147 146 147 147 150 150 150 156
228 181 104 75 75 128 180 170 201 223 203 153 174 221 241 233 219 206 236 236 262 241 241 249 280 290 267 230 220 196 175 160 139 150 154 146 127 127 155 156 151 151 152 154 156 156 155 154 153 154 151 148 150 157
257 138 95 98 116 210 239 172 218 239 263 209 187 322 299 268 267 275 276 270 239 240 242 233 252 220 192 160 153 162 177 181 185 165 171 166 158 155 150 149 149 150 152 150 147 147 152 148 145 142 143 143 148 151
151 79 70 99 194 247 236 313 293 272 254 256 240 220 262 279 287 282 267 259 254 252 200 218 234 225 188 167 162 156 157 190 195 185 163 162 157 155 154 152 153 154 153 150 148 148 146 146 149 150 149 151 156 159
62 139 122 114 221 204 58 249 280 257 267 247 255 219 263 283 271 271 238 244 236 205 214 203 207 196 200 199 188 177 192 173 175 170 169 167 159 159 158 156 155 155 153 152 152 153 154 153 154 156 156 158 161 166
84 85 64 102 146 219 265 176 263 263 257 260 259 213 211 202 239 262 292 238 229 211 212 205 209 214 199 191 184 175 168 175 171 170 175 174 169 163 159 158 158 158 156 155 155 157 157 156 155 157 160 161 165 172